Location: Grange Verzio
(44.5000°N, 6.9833°E)
Time: 17:02:14
(UTC+00:00)

Meteor 1-11 - Pass Details

Date: 01 February 2023
Orbit: 839 x 888 km, 81.2° (Epoch: 29 March)

Event Time Altitude Azimuth Distance (km) Brightness Sun altitude
Rises 18:01:21 0° 184° (S) 3,479 7.6 -14.6°
Reaches altitude 10° 18:03:48 10° 183° (S) 2,545 6.8 -15.0°
Maximum altitude 18:09:35 78° 98° (E) 910 4.2 -16.0°
Drops below altitude 10° 18:15:24 10° 13° (NNE) 2,552 6.5 -17.1°
Sets 18:17:51 0° 12° (NNE) 3,489 7.2 -17.5°
